Change the Weather History Date:

Saturday, September 15, 2012

  Actual Average (KJAN) Record (KJAN)
Temperature  
Mean Temperature 78 °F 76 °F  
Max Temperature 88 °F 87 °F 104 °F (1980)
Min Temperature 68 °F 65 °F 42 °F (1902)
Degree Days  
Heating Degree Days 0 0  
Month to date heating degree days 0  
Since 1 July heating degree days 0  
Cooling Degree Days 13 11  
Month to date cooling degree days 196  
Year to date cooling degree days 1995  
Growing Degree Days 28 (Base 50)    
Moisture  
Dew Point 64 °F    
Average Humidity 66    
Maximum Humidity 84    
Minimum Humidity 39    
Precipitation  
Precipitation 0.00 in 0.10 in 1.44 in (1949)
Month to date precipitation 1.50  
Year to date precipitation 38.78  
Sea Level Pressure  
Sea Level Pressure 30.10 in    
Wind  
Wind Speed 1 mph (ENE)    
Max Wind Speed 6 mph    
Max Gust Speed -    
Visibility 10 miles    
Events      
T = Trace of Precipitation, MM = Missing Value Source: NWS Daily Summary

Daily Weather History Graph

Daily Weather History Graph

Search for Another Location

Airport or City:

Trip Planner

Search our weather history database for the weather conditions in past years. The results will help you decide how hot, cold, wet, or windy it might be!

Date:

Astronomy

Sep. 15, 2012 Rise Set
Actual Time 6:45 AM CDT 7:06 PM CDT
Civil Twilight 6:20 AM CDT 7:30 PM CDT
Nautical Twilight 5:51 AM CDT 7:59 PM CDT
Astronomical Twilight 5:22 AM CDT 8:28 PM CDT
Moon 6:14 AM CDT (9/15) 6:40 PM CDT (9/15)
Length of Visible Light 13h 10m
Length of Day
12h 21m
Waning Crescent, 0% of the Moon is Illuminated
Sep 15
Waning Crescent
Sep 15
New
Sep 22
First Quarter
Sep 29
Full
Oct 8
Last Quarter

Hourly Weather History & Observations

Time (CDT) Temp. Heat Index Dew Point Humidity Pressure Visibility Wind Dir Wind Speed Gust Speed Precip Events Conditions
12:53 AM 73.0 °F - 64.0 °F 73% 30.15 in 10.0 mi Calm Calm - N/A   Clear
1:53 AM 70.0 °F - 64.0 °F 81% 30.14 in 10.0 mi Calm Calm - N/A   Clear
2:53 AM 70.0 °F - 64.0 °F 81% 30.12 in 10.0 mi Calm Calm - N/A   Clear
3:53 AM 69.1 °F - 64.0 °F 84% 30.11 in 10.0 mi East 3.5 mph - N/A   Clear
4:53 AM 70.0 °F - 63.0 °F 78% 30.12 in 10.0 mi Calm Calm - N/A   Clear
5:53 AM 68.0 °F - 63.0 °F 84% 30.13 in 10.0 mi Calm Calm - N/A   Clear
7:53 AM 70.0 °F - 64.9 °F 84% 30.15 in 8.0 mi Calm Calm - N/A   Clear
8:53 AM 75.9 °F - 64.0 °F 67% 30.15 in 10.0 mi East 5.8 mph - N/A   Clear
9:53 AM 80.1 °F 81.9 °F 64.9 °F 60% 30.15 in 10.0 mi East 4.6 mph - N/A   Clear
10:53 AM 82.9 °F 84.4 °F 64.0 °F 53% 30.14 in 10.0 mi East 5.8 mph - N/A   Clear
11:53 AM 84.9 °F 86.1 °F 64.0 °F 49% 30.12 in 10.0 mi East 5.8 mph - N/A   Partly Cloudy
12:53 PM 84.9 °F 85.9 °F 63.0 °F 48% 30.11 in 10.0 mi Calm Calm - N/A   Clear
1:53 PM 87.1 °F 87.5 °F 62.1 °F 43% 30.09 in 10.0 mi NE 4.6 mph - N/A   Partly Cloudy
2:53 PM 86.0 °F 86.1 °F 61.0 °F 43% 30.07 in 10.0 mi Calm Calm - N/A   Partly Cloudy
3:53 PM 88.0 °F 87.6 °F 60.1 °F 39% 30.06 in 10.0 mi Calm Calm - N/A   Partly Cloudy
4:53 PM 84.9 °F 85.4 °F 62.1 °F 46% 30.05 in 10.0 mi NNE 3.5 mph - N/A   Scattered Clouds
5:53 PM 84.0 °F 86.5 °F 66.9 °F 56% 30.05 in 10.0 mi Calm Calm - N/A   Partly Cloudy
6:53 PM 81.0 °F 83.0 °F 66.0 °F 60% 30.05 in 10.0 mi Calm Calm - N/A   Partly Cloudy
7:53 PM 78.1 °F - 66.0 °F 66% 30.04 in 10.0 mi Calm Calm - N/A   Clear
8:53 PM 75.9 °F - 66.9 °F 74% 30.06 in 10.0 mi Calm Calm - N/A   Clear
9:53 PM 75.9 °F - 66.9 °F 74% 30.06 in 10.0 mi Calm Calm - N/A   Clear
10:53 PM 73.0 °F - 66.9 °F 81% 30.06 in 10.0 mi Calm Calm - N/A   Clear
11:53 PM 72.0 °F - 66.9 °F 84% 30.06 in 10.0 mi Calm Calm - N/A   Clear